Temp
24 24 23 23 22 21 21 20 20 20 19 18 19 19 19 19 19 18 19 19 19 20 19 19 19 19 19 20 19 19 19 19 19 18 17 16 15 14 14 14 13 13 13
24 24 23 23 22 21 21 20 20 19 19 19 18 19 19 18 19 18 19 19 19 19 19 19 19 19 19 20 20 20 20 19 19 19 17 16 15 14 14 14 14 13 13
24 23 23 23 22 21 21 21 20 20 19 19 19 18 19 19 19 18 18 19 18 19 19 19 19 20 20 19 19 19 19 18 19 19 18 17 15 15 14 14 13 13 13
25 24 23 23 23 22 22 21 21 20 20 19 19 19 19 19 18 18 18 18 18 19 19 18 18 19 20 18 18 19 19 19 18 18 18 17 15 15 14 14 14 14 13
25 25 24 24 23 23 22 22 21 21 20 19 19 19 19 18 18 18 18 18 18 18 19 18 18 19 20 19 18 18 19 19 18 18 17 16 15 14 14 14 14 14 14
26 25 25 24 23 23 22 22 21 21 21 20 19 19 19 19 18 18 18 18 18 18 19 18 18 19 19 19 18 18 18 18 18 18 17 16 16 16 15 15 14 14 14
26 25 25 25 24 23 22 22 22 21 21 20 19 19 18 18 18 18 18 18 18 18 18 19 18 19 19 19 18 17 18 18 18 18 17 17 17 16 16 15 15 15 15
26 25 25 25 24 23 23 22 22 21 21 20 19 19 18 18 18 18 18 18 19 18 18 18 18 18 18 18 18 17 17 17 17 17 17 17 17 17 17 17 16 16 15
27 26 25 25 24 24 23 22 22 21 20 20 19 19 18 18 18 18 18 18 18 18 18 18 18 18 18 18 18 17 17 17 17 17 17 17 17 17 17 16 15 14 14
26 25 25 24 24 24 23 23 22 20 20 19 19 19 19 18 18 18 18 18 18 17 18 18 18 17 18 18 18 17 17 17 17 17 17 17 17 17 17 17 16 16 16
26 25 25 24 24 23 23 22 21 20 19 19 19 19 19 18 18 18 17 18 18 17 17 18 18 19 18 18 18 17 18 17 17 17 17 17 17 17 17 16 16 16 16
25 24 24 23 23 23 22 21 20 19 19 19 19 19 19 19 18 18 18 18 18 18 17 18 18 18 19 18 17 16 17 17 17 17 17 18 18 18 18 17 18 18 18
23 23 22 22 22 22 21 20 20 20 19 19 19 18 19 19 18 18 18 17 17 17 18 18 17 18 17 17 17 16 16 17 17 17 18 18 19 19 18 17 18 18 18
21 21 21 21 21 21 21 20 20 20 19 19 19 19 18 18 18 18 18 17 17 17 17 17 17 16 16 17 16 17 16 17 17 17 18 18 18 18 18 18 18 18 18
20 20 20 19 20 21 22 21 20 20 20 20 19 19 19 19 21 20 20 19 19 19 18 17 16 17 17 16 17 17 16 17 17 17 17 18 18 18 18 18 17 16 16
19 19 19 18 17 16 18 20 21 18 18 19 18 18 19 19 20 20 19 19 19 18 17 18 17 17 18 17 17 17 17 16 17 17 17 18 18 17 18 18 17 16 16
18 19 18 18 17 17 15 13 15 16 17 17 17 17 17 18 19 19 19 19 18 18 17 17 17 17 18 18 18 17 17 17 17 17 17 18 18 17 17 17 17 17 17
17 18 18 18 18 18 18 14 13 18 17 18 18 18 17 17 18 18 18 18 18 17 17 17 18 18 18 18 18 18 18 18 17 17 17 17 17 17 17 17 18 17 17
17 16 17 18 18 16 16 18 18 18 18 17 18 19 18 18 18 18 18 18 18 18 18 18 17 18 18 19 19 18 18 18 18 18 18 17 17 17 18 18 18 18 18
16 16 16 17 17 17 15 15 16 17 21 20 20 21 20 19 18 19 19 18 18 19 18 19 19 19 19 19 18 18 18 18 18 18 18 18 18 18 18 18 18 18 18
15 16 16 17 17 17 17 15 16 17 19 19 20 20 17 18 20 20 19 19 19 19 19 18 18 19 19 19 19 18 18 18 18 18 18 18 18 18 18 17 18 17 17
13 14 15 16 16 17 17 17 16 16 16 16 17 18 18 19 18 18 18 19 18 18 19 20 20 20 20 19 19 20 19 19 18 18 18 18 18 18 18 18 18 17 18
13 14 15 15 16 16 17 17 17 17 17 17 16 17 17 17 17 18 19 19 18 20 19 19 20 21 21 21 20 19 19 18 20 20 19 19 18 18 18 18 18 18 18
13 13 14 14 15 16 16 16 17 18 18 18 17 16 17 17 17 17 17 18 18 18 17 19 20 22 19 18 20 20 20 20 19 18 19 19 19 18 18 18 18 18 18
12 12 13 13 14 15 16 16 16 17 17 18 18 18 18 17 17 17 17 17 16 16 17 17 19 21 20 20 20 19 21 20 17 17 17 17 18 19 19 18 18 18 18
11 12 12 13 13 14 14 15 16 16 16 17 17 17 18 17 18 17 17 17 17 17 17 17 17 19 19 20 19 18 17 17 16 16 16 17 17 17 18 18 18 18 18
Height
1528 1531 1534 1536 1538 1539 1541 1544 1546 1548 1549 1549 1550 1552 1553 1554 1556 1558 1559 1561 1563 1565 1566 1568 1569 1571 1572 1573 1574 1576 1579 1581 1582 1583 1587 1590 1591 1592 1593 1595 1596 1596 1596
1523 1526 1529 1532 1534 1536 1537 1539 1542 1543 1545 1546 1546 1548 1549 1551 1552 1554 1556 1557 1559 1562 1563 1566 1567 1568 1569 1570 1571 1573 1576 1579 1580 1581 1584 1586 1589 1591 1592 1593 1594 1595 1595
1518 1521 1524 1527 1529 1531 1533 1535 1537 1539 1540 1541 1542 1543 1544 1546 1548 1549 1551 1554 1556 1559 1560 1562 1565 1566 1566 1567 1569 1571 1573 1576 1578 1579 1581 1583 1587 1588 1590 1591 1592 1593 1594
1513 1515 1518 1521 1524 1526 1529 1531 1533 1535 1536 1536 1538 1539 1540 1542 1544 1546 1547 1550 1552 1555 1557 1560 1562 1563 1563 1564 1566 1568 1569 1571 1573 1576 1578 1581 1585 1587 1588 1588 1589 1590 1592
1508 1511 1512 1515 1519 1521 1524 1526 1527 1531 1531 1532 1534 1535 1536 1537 1539 1541 1544 1547 1549 1552 1553 1556 1558 1559 1560 1562 1563 1564 1566 1568 1571 1572 1574 1577 1580 1583 1583 1585 1587 1588 1589
1502 1504 1508 1511 1512 1514 1518 1519 1521 1523 1525 1527 1528 1529 1531 1533 1534 1536 1538 1541 1545 1547 1549 1552 1554 1555 1555 1558 1560 1561 1563 1564 1566 1568 1570 1573 1576 1579 1582 1583 1585 1585 1585
1497 1500 1502 1504 1505 1507 1512 1512 1514 1516 1520 1521 1522 1525 1526 1527 1528 1531 1534 1535 1537 1541 1544 1547 1549 1551 1552 1554 1556 1557 1559 1561 1564 1566 1567 1570 1573 1575 1578 1581 1581 1582 1583
1492 1495 1498 1499 1501 1504 1507 1508 1509 1511 1512 1513 1515 1519 1520 1520 1523 1527 1530 1531 1531 1536 1540 1541 1545 1547 1548 1550 1552 1553 1555 1556 1559 1562 1566 1569 1571 1573 1575 1578 1580 1582 1582
1489 1491 1493 1494 1496 1499 1500 1503 1504 1504 1506 1508 1509 1512 1513 1514 1518 1522 1525 1527 1529 1531 1535 1537 1540 1543 1545 1547 1548 1550 1552 1553 1556 1559 1563 1566 1568 1571 1573 1574 1575 1577 1577
1487 1488 1489 1490 1491 1493 1495 1497 1498 1499 1501 1503 1504 1506 1507 1510 1514 1518 1522 1523 1525 1528 1532 1534 1536 1538 1541 1542 1544 1546 1549 1551 1553 1556 1559 1563 1565 1566 1567 1569 1571 1571 1573
1485 1485 1485 1486 1488 1489 1491 1493 1494 1495 1497 1498 1499 1501 1503 1506 1510 1515 1518 1521 1523 1526 1528 1530 1533 1535 1537 1538 1540 1543 1546 1550 1551 1553 1556 1558 1561 1563 1564 1566 1567 1568 1568
1482 1482 1482 1483 1484 1484 1486 1489 1490 1492 1493 1494 1495 1495 1497 1501 1505 1509 1514 1517 1520 1522 1525 1528 1530 1531 1534 1536 1537 1540 1543 1546 1547 1549 1550 1552 1555 1558 1561 1563 1564 1564 1565
1482 1481 1479 1480 1481 1482 1482 1485 1487 1488 1488 1490 1492 1493 1494 1496 1500 1503 1507 1511 1514 1517 1521 1524 1527 1527 1529 1532 1534 1537 1538 1540 1542 1544 1545 1548 1551 1555 1558 1558 1559 1560 1561
1478 1477 1475 1475 1477 1479 1479 1482 1484 1485 1485 1486 1487 1488 1491 1494 1495 1498 1500 1504 1509 1512 1515 1519 1521 1524 1525 1527 1529 1532 1533 1535 1537 1540 1542 1545 1548 1548 1550 1553 1555 1556 1556
1471 1473 1473 1474 1475 1476 1478 1478 1480 1483 1485 1485 1485 1488 1489 1490 1490 1494 1496 1497 1501 1505 1509 1512 1515 1517 1518 1521 1523 1525 1528 1530 1531 1535 1538 1540 1542 1543 1545 1548 1549 1551 1550
1468 1467 1469 1470 1467 1474 1477 1479 1482 1485 1486 1485 1487 1487 1487 1489 1490 1493 1494 1495 1497 1499 1502 1504 1506 1509 1512 1515 1517 1520 1523 1524 1526 1530 1533 1535 1537 1538 1540 1542 1544 1544 1545
1468 1468 1465 1464 1459 1459 1458 1476 1477 1478 1484 1482 1481 1483 1484 1484 1488 1488 1490 1493 1494 1494 1494 1494 1497 1501 1503 1506 1509 1512 1515 1519 1523 1525 1527 1529 1531 1533 1535 1536 1538 1537 1537
1467 1466 1463 1460 1458 1446 1463 1455 1458 1464 1469 1474 1474 1475 1477 1476 1478 1480 1482 1484 1486 1485 1487 1487 1487 1489 1492 1496 1500 1502 1505 1510 1515 1517 1519 1520 1523 1525 1526 1526 1528 1529 1528
1463 1463 1460 1458 1456 1453 1453 1452 1461 1456 1458 1461 1457 1458 1465 1466 1466 1469 1472 1474 1476 1477 1478 1480 1482 1483 1483 1485 1489 1492 1495 1499 1504 1507 1508 1510 1512 1515 1515 1516 1517 1519 1520
1458 1458 1457 1455 1453 1450 1452 1452 1448 1447 1444 1447 1447 1449 1447 1449 1451 1455 1459 1463 1464 1465 1467 1469 1473 1475 1476 1478 1480 1483 1485 1489 1492 1494 1497 1499 1501 1503 1504 1505 1506 1508 1509
1448 1450 1452 1451 1450 1450 1448 1446 1445 1441 1440 1443 1443 1441 1437 1437 1442 1442 1443 1447 1449 1451 1454 1458 1463 1465 1468 1469 1471 1473 1476 1478 1480 1483 1485 1487 1489 1491 1494 1496 1497 1499 1501
1442 1441 1441 1442 1443 1443 1442 1440 1437 1436 1437 1437 1436 1434 1433 1432 1434 1433 1434 1436 1439 1441 1444 1445 1447 1450 1452 1457 1462 1464 1466 1467 1470 1472 1474 1476 1477 1479 1481 1483 1485 1487 1489
1435 1435 1434 1433 1431 1431 1431 1431 1431 1431 1429 1427 1428 1426 1426 1425 1427 1428 1425 1425 1427 1428 1432 1434 1432 1435 1435 1439 1445 1449 1452 1455 1460 1462 1463 1465 1467 1468 1470 1472 1473 1475 1476
1428 1427 1427 1428 1427 1426 1424 1424 1424 1424 1423 1420 1418 1419 1419 1419 1418 1419 1416 1415 1417 1415 1418 1421 1422 1422 1422 1423 1427 1431 1436 1442 1447 1450 1453 1454 1455 1457 1459 1460 1461 1463 1465
1420 1420 1421 1421 1420 1419 1418 1418 1417 1416 1416 1414 1413 1412 1411 1410 1409 1408 1408 1408 1411 1411 1410 1414 1415 1411 1411 1412 1413 1417 1421 1427 1432 1436 1441 1444 1445 1445 1447 1450 1451 1452 1454
1412 1411 1411 1411 1411 1412 1411 1410 1408 1407 1408 1408 1407 1405 1404 1403 1401 1401 1400 1397 1396 1397 1400 1403 1406 1404 1402 1403 1405 1407 1411 1414 1418 1424 1429 1430 1433 1435 1437 1439 1442 1444 1445
Wind_Speed
29 28 24 23 23 23 22 22 22 17 15 15 17 19 18 18 18 17 16 17 19 16 15 18 16 17 14 14 17 21 18 13 9 11 15 12 10 8 10 9 7 6 8
31 30 29 24 22 23 22 21 21 23 18 17 17 20 20 21 19 18 18 19 22 19 16 18 18 16 17 16 16 18 18 17 13 10 17 17 15 10 8 6 9 5 1
32 32 31 28 23 22 19 15 16 17 19 19 20 21 21 21 20 18 17 18 22 19 19 19 18 18 20 16 19 19 18 19 18 15 12 19 16 14 12 11 8 7 6
31 31 32 30 25 19 19 20 20 18 18 17 18 19 19 21 22 20 19 21 22 19 20 21 19 19 21 21 18 18 17 16 19 17 15 18 18 15 12 12 13 9 7
34 33 30 27 25 22 23 23 23 21 20 20 19 18 20 21 24 22 22 22 21 20 23 20 19 18 20 24 23 20 18 17 16 18 19 21 22 21 18 14 15 11 10
36 35 30 29 29 28 26 25 23 22 22 21 22 20 21 23 23 25 24 24 22 22 22 22 19 17 20 21 24 24 23 22 18 18 20 21 18 18 15 16 17 18 16
38 37 33 31 32 32 26 27 25 25 23 25 24 24 22 23 25 26 25 26 24 24 25 23 21 19 19 20 20 23 22 20 17 14 16 19 16 15 15 18 21 20 16
38 40 35 33 34 30 26 28 24 24 26 27 22 22 25 24 25 24 24 25 24 24 26 24 23 21 20 19 19 21 23 22 20 17 16 14 12 11 14 13 12 15 17
31 36 36 37 35 31 30 28 28 23 22 23 20 22 24 25 25 26 25 24 24 23 26 24 22 23 21 22 20 23 22 24 21 20 19 21 20 19 17 16 20 21 22
23 30 35 35 34 33 30 28 24 21 17 20 22 21 21 23 26 26 27 27 26 26 25 24 23 23 23 22 23 25 25 26 26 25 24 22 19 19 21 21 19 22 24
22 25 29 31 31 30 28 24 21 19 18 21 22 20 21 23 26 28 29 30 28 28 27 24 23 22 21 23 23 23 24 23 24 24 25 24 24 24 24 23 24 27 28
25 27 30 28 29 28 24 22 20 21 21 22 23 22 24 24 24 27 28 28 27 27 28 23 20 19 21 23 23 23 21 24 25 25 27 27 27 27 25 25 23 23 24
23 26 27 27 26 25 24 23 23 22 22 24 25 26 26 24 26 28 28 28 29 29 26 23 19 18 22 23 24 23 23 25 26 27 26 25 24 20 21 24 23 23 23
24 25 26 26 28 27 24 24 24 24 24 26 26 26 27 27 27 28 29 29 30 28 27 25 22 20 19 23 24 25 26 27 27 26 25 22 21 22 23 23 23 23 25
21 24 26 27 28 28 28 28 26 24 24 26 27 26 27 29 27 26 27 31 30 29 28 29 26 25 23 23 24 27 28 29 30 28 26 24 24 25 25 23 23 23 26
26 18 21 19 13 21 32 29 26 21 22 22 25 27 28 28 27 25 27 28 29 30 31 32 33 29 27 26 26 26 29 31 32 31 29 27 28 28 27 27 28 29 31
30 28 23 20 16 20 21 48 6 1 15 20 22 27 30 32 30 27 28 27 29 32 35 36 35 34 32 30 29 31 32 31 30 30 31 30 31 31 31 32 32 33 35
23 25 22 16 16 14 22 40 34 5 20 22 19 20 30 33 33 31 27 24 31 34 36 36 34 34 33 32 33 34 33 33 32 32 32 33 34 35 35 37 38 39 40
18 20 21 16 14 10 20 8 24 37 31 25 28 22 25 27 36 37 35 33 33 31 32 35 37 36 34 32 33 34 34 35 33 32 33 32 32 33 36 37 38 38 39
18 15 17 16 15 8 13 23 21 27 21 16 19 16 26 31 29 37 39 38 38 37 35 34 36 35 33 32 32 32 33 36 35 35 34 32 31 30 31 31 33 34 34
24 18 11 16 17 13 7 29 28 26 28 25 18 19 17 18 30 30 36 42 42 40 37 37 39 40 38 36 33 33 33 33 32 34 35 35 34 34 31 32 33 32 31
20 18 14 15 20 21 17 12 14 24 30 35 32 31 26 19 24 29 31 27 30 33 35 36 37 39 39 39 37 36 36 35 34 34 35 36 37 36 35 36 35 35 34
22 19 17 15 15 19 23 22 20 18 21 27 33 34 39 41 38 34 34 37 40 41 42 38 32 35 30 33 37 37 39 39 36 33 33 33 35 38 37 37 36 36 36
21 23 18 17 20 18 17 25 28 26 23 21 21 27 30 33 35 34 24 24 28 26 35 38 32 34 29 27 29 35 39 41 40 37 36 34 33 32 33 35 37 37 36
21 19 19 20 15 16 17 21 21 25 23 23 24 24 24 26 31 32 33 36 36 33 34 36 36 31 27 28 28 29 31 32 33 32 33 35 36 33 33 34 35 35 37
22 25 25 25 25 22 20 16 19 18 16 16 16 19 23 23 19 20 22 25 30 33 41 43 46 48 43 37 34 32 29 28 31 37 35 33 34 36 35 36 36 38 37
Wind_Direction
232 233 235 238 241 241 245 243 247 244 239 246 237 232 234 232 226 240 239 230 226 224 219 211 219 200 211 215 216 222 224 229 227 220 214 206 194 191 185 171 148 106 63
235 235 238 240 244 241 242 247 250 248 246 245 251 243 242 238 236 239 244 232 219 223 223 212 219 212 224 222 206 208 221 225 240 235 210 204 202 185 183 199 203 208 178
238 235 237 236 239 236 237 246 244 248 246 244 245 250 240 238 238 237 241 228 222 225 229 218 219 225 227 215 205 210 215 228 236 244 234 215 204 196 193 196 204 211 224
237 237 237 238 237 233 235 243 253 245 244 241 243 249 247 241 242 243 241 228 223 225 227 226 236 235 223 216 209 204 205 217 223 224 230 213 208 209 208 207 204 206 209
234 232 239 241 239 239 236 241 249 249 246 247 246 248 246 246 238 235 239 229 223 220 225 231 234 239 227 222 221 221 224 221 214 210 213 208 206 208 207 203 214 218 225
233 234 238 241 242 239 238 239 249 254 246 248 244 246 242 244 240 232 228 220 220 220 227 234 239 236 228 224 224 228 235 230 220 213 210 214 217 212 206 201 207 221 232
233 235 239 242 245 243 239 241 246 255 256 248 247 245 245 244 236 231 228 219 215 226 230 238 245 242 232 229 224 221 226 227 232 234 232 223 223 217 206 207 216 230 241
236 231 237 240 241 242 242 241 246 253 255 253 251 249 248 242 228 227 224 224 214 222 235 238 245 242 233 229 222 217 221 220 218 225 231 236 239 231 223 229 240 238 244
244 237 236 238 240 240 239 242 244 255 251 259 252 251 244 228 220 219 216 219 223 226 231 237 240 234 234 229 223 213 213 214 220 224 234 236 239 239 237 236 228 231 239
256 245 237 239 242 239 241 248 253 261 255 250 251 243 232 226 219 220 220 226 224 229 232 238 240 239 236 228 224 217 216 214 219 224 230 236 237 236 234 239 247 245 256
264 261 249 244 243 242 250 252 252 254 248 247 240 233 230 225 222 223 228 233 232 233 234 237 240 239 233 229 224 223 224 223 226 229 234 239 243 246 243 239 246 251 252
272 267 259 250 243 240 246 245 241 244 246 239 233 229 227 224 218 222 229 231 233 236 243 245 247 248 248 234 230 227 229 225 228 233 234 238 243 244 247 247 252 251 251
287 274 270 260 255 251 250 244 237 242 241 235 234 234 229 221 215 217 227 236 230 236 242 248 250 255 253 246 237 237 233 228 226 230 232 236 242 246 248 248 248 247 246
293 279 275 268 261 258 257 249 243 243 240 235 236 233 233 230 223 221 225 226 226 234 240 239 243 247 251 249 239 238 240 236 232 237 240 243 243 237 236 239 243 247 251
277 284 281 274 267 265 258 250 247 249 249 247 244 239 240 238 233 227 225 220 228 237 239 240 238 237 237 240 238 235 237 239 238 240 245 244 242 237 234 235 242 245 252
338 291 280 279 299 337 286 262 260 261 266 269 267 258 255 251 251 249 241 240 240 240 237 241 244 245 247 246 246 245 243 239 240 244 247 250 248 246 247 243 245 249 256
350 354 344 322 301 300 23 355 287 7 318 269 263 264 264 268 263 263 262 257 251 244 239 238 240 247 250 251 252 250 249 250 249 249 252 253 255 255 254 255 255 257 259
342 348 351 342 333 330 263 313 292 335 326 309 288 283 263 257 259 257 261 254 248 243 240 241 241 242 244 249 250 251 253 253 251 251 254 255 258 259 257 256 256 257 261
342 338 337 346 351 272 230 236 233 260 264 281 270 268 265 267 256 249 248 245 249 245 244 242 244 246 245 246 248 250 251 252 253 253 256 259 262 261 260 258 258 258 261
314 336 321 330 347 330 224 201 216 224 233 240 238 247 253 263 251 241 245 244 247 248 247 248 252 257 256 253 251 252 255 255 254 256 258 258 258 257 258 258 258 259 261
308 309 301 304 322 323 277 234 244 225 227 226 243 252 280 251 249 255 239 236 238 243 248 251 255 259 263 259 256 258 258 259 261 262 261 259 259 257 258 260 262 264 266
317 301 305 280 288 299 302 301 250 248 248 252 248 242 251 254 260 247 247 242 233 236 241 248 250 253 252 253 256 260 260 259 263 266 267 266 264 262 261 261 264 266 268
293 308 299 293 302 294 288 287 285 277 273 262 260 262 262 259 270 276 274 269 261 256 250 247 246 253 246 241 246 257 259 258 263 267 268 266 265 262 261 262 263 264 265
291 285 300 284 277 290 294 285 281 282 286 283 274 263 261 263 270 272 277 264 268 264 248 240 240 251 245 242 239 242 251 257 264 268 265 262 262 264 264 262 261 263 265
298 292 290 285 287 285 285 286 295 279 281 281 283 282 282 284 273 269 267 262 257 250 244 248 252 250 249 248 241 241 241 248 261 266 269 266 262 261 260 263 265 265 266
291 288 287 284 284 288 282 290 286 295 288 294 305 292 280 294 281 276 288 283 277 262 256 251 253 258 258 260 247 241 241 244 250 258 261 264 263 262 259 259 260 262 264